Time,TemperatureF,DewpointF,PressureIn,WindDirection,WindDirectionDegrees,WindSpeedMPH,WindSpeedGustMPH,Humidity,HourlyPrecipIn,Conditions,Clouds,dailyrainin,SoftwareType,DateUTC
2013-05-16 00:02:00,63.0,63.0,30.13,West,259,1.0,2.0,100,0.00,,,0.03,,2013-05-16 04:02:00,
2013-05-16 00:12:00,63.0,63.0,30.13,West,259,1.0,2.0,100,0.00,,,0.03,,2013-05-16 04:12:00,
2013-05-16 00:23:00,63.0,62.0,30.13,SW,225,0.0,0.0,98,0.00,,,0.06,,2013-05-16 04:23:00,
2013-05-16 00:33:00,63.0,62.0,30.13,South,188,0.0,1.0,96,0.00,,,0.06,,2013-05-16 04:33:00,
2013-05-16 00:42:00,63.0,62.0,30.13,South,188,0.0,1.0,96,0.00,,,0.06,,2013-05-16 04:42:00,
2013-05-16 00:53:00,63.0,62.0,30.13,SW,222,0.0,0.0,96,0.00,,,0.06,,2013-05-16 04:53:00,
2013-05-16 01:02:00,63.0,60.0,30.13,SW,231,0.0,1.0,90,0.00,,,0.06,,2013-05-16 05:02:00,
2013-05-16 01:12:00,63.0,60.0,30.13,SW,231,0.0,1.0,90,0.00,,,0.06,,2013-05-16 05:12:00,
2013-05-16 01:22:00,64.0,59.0,30.13,South,172,1.0,3.0,85,0.00,,,0.03,,2013-05-16 05:22:00,
2013-05-16 01:32:00,66.0,60.0,30.13,SE,125,2.0,2.0,82,0.00,,,0.03,,2013-05-16 05:32:00,
2013-05-16 01:42:00,66.0,60.0,30.13,SE,125,2.0,2.0,82,0.00,,,0.03,,2013-05-16 05:42:00,
2013-05-16 01:52:00,66.0,60.0,30.12,SSE,153,2.0,3.0,81,0.00,,,0.03,,2013-05-16 05:52:00,
2013-05-16 02:01:00,65.0,59.0,30.12,SW,214,1.0,1.0,82,0.00,,,0.03,,2013-05-16 06:01:00,
2013-05-16 02:12:00,65.0,59.0,30.12,SW,214,1.0,1.0,82,0.00,,,0.03,,2013-05-16 06:12:00,
2013-05-16 02:22:00,66.0,60.0,30.12,NW,316,2.0,4.0,81,0.00,,,0.03,,2013-05-16 06:22:00,
2013-05-16 02:33:00,66.0,59.0,30.11,West,274,1.0,3.0,79,0.00,,,0.03,,2013-05-16 06:33:00,
2013-05-16 02:43:00,66.0,59.0,30.11,West,274,1.0,3.0,79,0.00,,,0.03,,2013-05-16 06:43:00,
2013-05-16 02:52:00,67.0,59.0,30.11,NW,312,0.0,0.0,76,0.00,,,0.03,,2013-05-16 06:52:00,
2013-05-16 03:02:00,68.0,59.0,30.11,NE,55,3.0,4.0,74,0.00,,,0.03,,2013-05-16 07:02:00,
2013-05-16 03:12:00,68.0,59.0,30.11,NE,55,3.0,4.0,74,0.00,,,0.03,,2013-05-16 07:12:00,
2013-05-16 03:24:00,68.0,57.0,30.11,West,259,4.0,7.0,67,0.00,,,0.03,,2013-05-16 07:24:00,
2013-05-16 03:34:00,68.0,58.0,30.11,SE,129,1.0,4.0,71,0.00,,,0.03,,2013-05-16 07:34:00,
2013-05-16 03:44:00,68.0,58.0,30.11,SE,129,1.0,4.0,71,0.00,,,0.03,,2013-05-16 07:44:00,
2013-05-16 03:54:00,67.0,59.0,30.11,SSE,152,1.0,2.0,75,0.00,,,0.03,,2013-05-16 07:54:00,
2013-05-16 04:03:00,65.0,57.0,30.11,SSW,212,1.0,2.0,76,0.00,,,0.03,,2013-05-16 08:03:00,
2013-05-16 04:13:00,66.0,57.0,30.11,South,181,1.0,2.0,73,0.00,,,0.03,,2013-05-16 08:13:00,
2013-05-16 04:24:00,66.0,57.0,30.11,South,181,1.0,2.0,73,0.00,,,0.03,,2013-05-16 08:24:00,
2013-05-16 04:34:00,65.0,58.0,30.12,ESE,114,0.0,0.0,77,0.00,,,0.03,,2013-05-16 08:34:00,
2013-05-16 04:45:00,64.0,57.0,30.12,NNE,18,1.0,2.0,79,0.00,,,0.03,,2013-05-16 08:45:00,
2013-05-16 04:54:00,64.0,57.0,30.12,NNE,18,1.0,2.0,79,0.00,,,0.03,,2013-05-16 08:54:00,
2013-05-16 05:04:00,64.0,57.0,30.11,ENE,73,0.0,0.0,79,0.00,,,0.03,,2013-05-16 09:04:00,
2013-05-16 05:14:00,63.0,56.0,30.12,ENE,63,1.0,3.0,79,0.00,,,0.03,,2013-05-16 09:14:00,
2013-05-16 05:24:00,63.0,56.0,30.12,ENE,63,1.0,3.0,79,0.00,,,0.03,,2013-05-16 09:24:00,
2013-05-16 05:35:00,63.0,58.0,30.12,WSW,243,2.0,5.0,83,0.00,,,0.03,,2013-05-16 09:35:00,
2013-05-16 05:45:00,64.0,57.0,30.12,SSE,160,1.0,4.0,79,0.00,,,0.03,,2013-05-16 09:45:00,
2013-05-16 05:55:00,64.0,57.0,30.12,SSE,160,1.0,4.0,79,0.00,,,0.03,,2013-05-16 09:55:00,
2013-05-16 06:05:00,65.0,57.0,30.12,SE,131,1.0,2.0,75,0.00,,,0.03,,2013-05-16 10:05:00,
2013-05-16 06:15:00,66.0,57.0,30.13,NW,323,0.0,2.0,73,0.00,,,0.03,,2013-05-16 10:15:00,
2013-05-16 06:24:00,66.0,57.0,30.13,NW,323,0.0,2.0,73,0.00,,,0.03,,2013-05-16 10:24:00,
2013-05-16 06:36:00,64.0,57.0,30.13,NNE,24,2.0,4.0,77,0.00,,,0.03,,2013-05-16 10:36:00,
2013-05-16 06:45:00,64.0,57.0,30.13,NNE,24,2.0,4.0,77,0.00,,,0.03,,2013-05-16 10:45:00,
2013-05-16 06:56:00,64.0,57.0,30.13,SSW,204,2.0,4.0,78,0.00,,,0.03,,2013-05-16 10:56:00,
2013-05-16 07:05:00,65.0,57.0,30.14,SSW,200,2.0,3.0,76,0.00,,,0.03,,2013-05-16 11:05:00,
2013-05-16 07:14:00,65.0,57.0,30.14,SSW,200,2.0,3.0,76,0.00,,,0.03,,2013-05-16 11:14:00,
2013-05-16 07:25:00,63.0,57.0,30.14,SSW,212,1.0,2.0,81,0.00,,,0.03,,2013-05-16 11:25:00,
2013-05-16 07:35:00,63.0,59.0,30.15,WNW,284,1.0,2.0,86,0.00,,,0.03,,2013-05-16 11:35:00,
2013-05-16 07:56:00,63.0,59.0,30.16,SW,218,2.0,2.0,86,0.00,,,0.03,,2013-05-16 11:56:00,
2013-05-16 08:06:00,63.0,59.0,30.15,SSW,197,1.0,2.0,88,0.00,,,0.03,,2013-05-16 12:06:00,
2013-05-16 08:13:00,63.0,59.0,30.15,SSW,197,1.0,2.0,88,0.00,,,0.03,,2013-05-16 12:13:00,
2013-05-16 08:23:00,64.0,60.0,30.16,NW,314,1.0,2.0,87,0.00,,,0.03,,2013-05-16 12:23:00,
2013-05-16 08:35:00,64.0,61.0,30.17,WNW,295,0.0,0.0,89,0.00,,,0.03,,2013-05-16 12:35:00,
2013-05-16 08:45:00,64.0,61.0,30.17,WNW,295,0.0,0.0,89,0.00,,,0.03,,2013-05-16 12:45:00,
2013-05-16 08:53:00,66.0,61.0,30.17,SE,132,2.0,3.0,84,0.00,,,0.03,,2013-05-16 12:53:00,
2013-05-16 09:04:00,67.0,63.0,30.18,SE,141,0.0,0.0,86,0.00,,,0.03,,2013-05-16 13:04:00,
2013-05-16 09:12:00,68.0,62.0,30.17,East,94,0.0,0.0,80,0.00,,,0.03,,2013-05-16 13:12:00,
2013-05-16 09:26:00,68.0,62.0,30.17,East,94,0.0,0.0,80,0.00,,,0.03,,2013-05-16 13:26:00,
2013-05-16 09:35:00,69.0,61.0,30.18,South,169,4.0,7.0,76,0.00,,,0.03,,2013-05-16 13:35:00,
2013-05-16 09:43:00,69.0,61.0,30.18,South,169,4.0,7.0,76,0.00,,,0.03,,2013-05-16 13:43:00,
2013-05-16 09:55:00,71.0,63.0,30.19,South,179,2.0,3.0,75,0.00,,,0.03,,2013-05-16 13:55:00,
2013-05-16 10:05:00,72.0,63.0,30.18,NNW,329,1.0,2.0,73,0.00,,,0.03,,2013-05-16 14:05:00,
2013-05-16 10:16:00,72.0,63.0,30.18,NNW,329,1.0,2.0,73,0.00,,,0.03,,2013-05-16 14:16:00,
2013-05-16 10:23:00,73.0,62.0,30.18,SSW,204,2.0,4.0,69,0.00,,,0.03,,2013-05-16 14:23:00,
2013-05-16 10:37:00,75.0,61.0,30.18,WSW,242,1.0,2.0,62,0.00,,,0.03,,2013-05-16 14:37:00,
2013-05-16 10:47:00,75.0,61.0,30.18,WSW,242,1.0,2.0,62,0.00,,,0.03,,2013-05-16 14:47:00,
2013-05-16 10:56:00,76.0,61.0,30.18,North,1,2.0,4.0,60,0.00,,,0.03,,2013-05-16 14:56:00,
2013-05-16 11:08:00,76.0,61.0,30.19,NE,51,3.0,6.0,59,0.00,,,0.03,,2013-05-16 15:08:00,
2013-05-16 11:17:00,76.0,61.0,30.19,NE,51,3.0,6.0,59,0.00,,,0.03,,2013-05-16 15:17:00,
2013-05-16 11:28:00,77.0,61.0,30.19,NNW,335,2.0,3.0,58,0.00,,,0.03,,2013-05-16 15:28:00,
2013-05-16 11:40:00,79.0,62.0,30.19,NNW,330,2.0,3.0,56,0.00,,,0.03,,2013-05-16 15:40:00,
2013-05-16 11:50:00,79.0,62.0,30.19,West,276,0.0,0.0,56,0.00,,,0.03,,2013-05-16 15:50:00,
2013-05-16 12:00:00,79.0,62.0,30.19,West,276,0.0,0.0,56,0.00,,,0.03,,2013-05-16 16:00:00,
2013-05-16 12:09:00,80.0,60.0,30.18,NNE,21,1.0,3.0,51,0.00,,,0.03,,2013-05-16 16:09:00,
2013-05-16 12:20:00,80.0,60.0,30.18,NNE,21,1.0,3.0,51,0.00,,,0.03,,2013-05-16 16:20:00,
2013-05-16 12:30:00,81.0,63.0,30.18,South,186,2.0,2.0,54,0.00,,,0.03,,2013-05-16 16:30:00,
2013-05-16 12:40:00,80.0,-99.9,30.17,SE,135,1.0,3.0,51,0.00,,,0.03,,2013-05-16 16:40:00,
2013-05-16 12:50:00,80.0,60.0,30.17,SE,135,1.0,3.0,51,0.00,,,0.03,,2013-05-16 16:50:00,
2013-05-16 13:01:00,81.0,62.0,30.16,SE,125,0.0,0.0,53,0.00,,,0.03,,2013-05-16 17:01:00,
2013-05-16 13:10:00,81.0,61.0,30.17,NNW,342,1.0,3.0,51,0.00,,,0.03,,2013-05-16 17:10:00,
2013-05-16 13:20:00,81.0,61.0,30.17,NNW,342,1.0,3.0,51,0.00,,,0.03,,2013-05-16 17:20:00,
2013-05-16 13:31:00,82.0,63.0,30.17,SSE,150,0.0,1.0,52,0.00,,,0.03,,2013-05-16 17:31:00,
2013-05-16 13:40:00,82.0,60.0,30.17,SW,229,1.0,1.0,48,0.00,,,0.03,,2013-05-16 17:40:00,
2013-05-16 13:50:00,83.0,-99.9,30.16,WSW,243,2.0,3.0,59,0.00,,,0.03,,2013-05-16 17:50:00,
2013-05-16 14:00:00,-999.0,-99.9,30.16,WSW,243,2.0,3.0,59,0.00,,,0.03,,2013-05-16 18:00:00,
2013-05-16 14:10:00,80.0,62.0,30.15,SSE,150,3.0,7.0,55,0.00,,,0.03,,2013-05-16 18:10:00,
2013-05-16 14:20:00,80.0,62.0,30.15,SSE,150,3.0,7.0,55,0.00,,,0.03,,2013-05-16 18:20:00,
2013-05-16 14:30:00,-999.0,-99.9,30.15,West,274,1.0,1.0,57,0.00,,,0.03,,2013-05-16 18:30:00,
2013-05-16 14:40:00,-999.0,-99.9,30.16,West,259,1.0,2.0,57,0.00,,,0.03,,2013-05-16 18:40:00,
2013-05-16 14:50:00,-999.0,-99.9,30.16,West,259,1.0,2.0,57,0.00,,,0.03,,2013-05-16 18:50:00,
2013-05-16 15:00:00,-999.0,-99.9,30.15,North,7,1.0,1.0,63,0.00,,,0.03,,2013-05-16 19:00:00,
2013-05-16 15:10:00,79.0,65.0,30.16,ESE,122,3.0,5.0,63,0.00,,,0.03,,2013-05-16 19:10:00,
2013-05-16 15:30:00,78.0,67.0,30.15,WSW,245,0.0,2.0,70,0.00,,,0.03,,2013-05-16 19:30:00,
2013-05-16 15:40:00,77.0,-99.9,30.15,SSE,160,1.0,2.0,69,0.00,,,0.03,,2013-05-16 19:40:00,
2013-05-16 15:51:00,-999.0,-99.9,30.15,SSE,160,1.0,2.0,69,0.00,,,0.03,,2013-05-16 19:51:00,
2013-05-16 16:00:00,76.0,-99.9,30.15,SE,135,3.0,4.0,71,0.00,,,0.03,,2013-05-16 20:00:00,
2013-05-16 16:10:00,-999.0,-99.9,30.15,SSW,211,0.0,0.0,72,0.00,,,0.03,,2013-05-16 20:10:00,
2013-05-16 16:20:00,78.0,-99.9,30.14,SE,143,1.0,4.0,66,0.00,,,0.03,,2013-05-16 20:20:00,
2013-05-16 16:30:00,78.0,-99.9,30.14,SE,143,1.0,4.0,66,0.00,,,0.03,,2013-05-16 20:30:00,
2013-05-16 16:40:00,-999.0,-99.9,30.14,SSW,207,0.0,0.0,67,0.00,,,0.03,,2013-05-16 20:40:00,
2013-05-16 16:50:00,79.0,68.0,30.14,SSW,195,0.0,0.0,68,0.00,,,0.03,,2013-05-16 20:50:00,
2013-05-16 17:00:00,79.0,68.0,30.14,SSW,195,0.0,0.0,68,0.00,,,0.03,,2013-05-16 21:00:00,
2013-05-16 17:10:00,78.0,-99.9,30.13,SSW,195,0.0,0.0,72,0.00,,,0.03,,2013-05-16 21:10:00,
2013-05-16 17:20:00,78.0,-99.9,30.13,SSW,195,0.0,0.0,72,0.00,,,0.03,,2013-05-16 21:20:00,
2013-05-16 17:29:00,78.0,69.0,30.12,SSW,195,0.0,0.0,75,0.00,,,0.03,,2013-05-16 21:29:00,
2013-05-16 17:38:00,80.0,68.0,30.12,South,191,0.0,0.0,68,0.00,,,0.03,,2013-05-16 21:38:00,
2013-05-16 17:50:00,80.0,-99.9,30.12,South,191,0.0,0.0,68,0.00,,,0.03,,2013-05-16 21:50:00,
2013-05-16 18:00:00,-999.0,-99.9,30.12,ESE,114,1.0,1.0,67,0.00,,,0.03,,2013-05-16 22:00:00,
2013-05-16 18:08:00,80.0,64.0,30.12,SW,218,1.0,1.0,59,0.00,,,0.03,,2013-05-16 22:08:00,
2013-05-16 18:15:00,79.0,67.0,30.12,ESE,122,0.0,0.0,66,0.00,,,0.02,,2013-05-16 22:15:00,
2013-05-16 18:21:00,80.0,64.0,30.12,SW,218,1.0,1.0,59,0.00,,,0.03,,2013-05-16 22:21:00,
2013-05-16 18:30:00,79.0,66.0,30.12,SE,139,2.0,4.0,64,0.00,,,0.02,,2013-05-16 22:30:00,
2013-05-16 18:40:00,79.0,67.0,30.12,ESE,122,0.0,0.0,66,0.00,,,0.02,,2013-05-16 22:40:00,
2013-05-16 18:51:00,79.0,67.0,30.12,ESE,122,0.0,0.0,66,0.00,,,0.02,,2013-05-16 22:51:00,
2013-05-16 19:00:00,79.0,67.0,30.12,ESE,122,0.0,0.0,66,0.00,,,0.02,,2013-05-16 23:00:00,
2013-05-16 19:06:00,79.0,67.0,30.12,ESE,122,0.0,0.0,66,0.00,,,0.02,,2013-05-16 23:06:00,